• In Deutschland
  • Länderverzeichnis
  • Für 7 Tage
  • Wassertemperatur
  • Satellitenkarten
  • Wetterkarte
  • Widgets
  • user-avatar
    Anmelden

    Stündliche Wetter Leer

    Heute, 22 Januar, Montag

    Zeit Temperatur Niederschläge Wind Luftdruck Luftfeuchtigkeit
    00:00 -1°C° 0 mm 5 m/S 757 mmHg 89%
    01:00 -2°C° 0,1 mm 6 m/S 756 mmHg 88%
    02:00 -2°C° 0,1 mm 6 m/S 756 mmHg 87%
    03:00 -2°C° 0,1 mm 6 m/S 755 mmHg 86%
    04:00 -2°C° 0,3 mm 6 m/S 754 mmHg 87%
    05:00 -2°C° 0,3 mm 6 m/S 754 mmHg 89%
    06:00 -2°C° 0,3 mm 6 m/S 753 mmHg 90%
    07:00 0°C° 0,1 mm 5 m/S 753 mmHg 91%
    08:00 0°C° 0,1 mm 4 m/S 753 mmHg 93%
    09:00 0°C° 0,1 mm 4 m/S 753 mmHg 94%
    10:00 +1°C° 0,1 mm 4 m/S 753 mmHg 94%
    11:00 +1°C° 0,1 mm 4 m/S 753 mmHg 95%
    12:00 +3°C° 0,1 mm 3 m/S 753 mmHg 95%
    13:00 +3°C° 0,1 mm 4 m/S 754 mmHg 94%
    14:00 +4°C° 0,1 mm 4 m/S 754 mmHg 94%
    15:00 +4°C° 0,1 mm 4 m/S 755 mmHg 93%
    16:00 +3°C° 0,1 mm 5 m/S 755 mmHg 93%
    17:00 +3°C° 0,1 mm 5 m/S 756 mmHg 94%
    18:00 +3°C° 0,1 mm 5 m/S 757 mmHg 94%
    19:00 +2°C° 0 mm 5 m/S 758 mmHg 94%
    20:00 +2°C° 0 mm 5 m/S 758 mmHg 95%
    21:00 +2°C° 0 mm 5 m/S 759 mmHg 95%
    22:00 +1°C° 0 mm 4 m/S 760 mmHg 95%
    23:00 +1°C° 0 mm 4 m/S 760 mmHg 95%

    Morgen, 23 Januar, Dienstag

    Zeit Temperatur Niederschläge Wind Luftdruck Luftfeuchtigkeit
    00:00 +1°C° 0 mm 4 m/S 761 mmHg 96%
    01:00 +1°C° 0 mm 4 m/S 761 mmHg 96%
    02:00 +1°C° 0 mm 4 m/S 762 mmHg 96%
    03:00 +1°C° 0 mm 4 m/S 762 mmHg 96%
    04:00 +1°C° 0 mm 4 m/S 763 mmHg 96%
    05:00 +1°C° 0 mm 4 m/S 763 mmHg 96%
    06:00 0°C° 0 mm 4 m/S 763 mmHg 96%
    07:00 +1°C° 0 mm 4 m/S 763 mmHg 96%
    08:00 +1°C° 0 mm 5 m/S 763 mmHg 96%
    09:00 +1°C° 0 mm 5 m/S 764 mmHg 95%
    10:00 +2°C° 0 mm 5 m/S 763 mmHg 93%
    11:00 +3°C° 0 mm 6 m/S 763 mmHg 91%
    12:00 +4°C° 0 mm 6 m/S 763 mmHg 89%
    13:00 +4°C° 0 mm 6 m/S 763 mmHg 89%
    14:00 +4°C° 0 mm 6 m/S 763 mmHg 89%
    15:00 +4°C° 0 mm 6 m/S 762 mmHg 89%
    16:00 +4°C° 0 mm 6 m/S 762 mmHg 89%
    17:00 +5°C° 0 mm 7 m/S 761 mmHg 90%
    18:00 +5°C° 0 mm 7 m/S 761 mmHg 90%
    19:00 +5°C° 0,1 mm 7 m/S 761 mmHg 91%
    20:00 +6°C° 0,1 mm 7 m/S 760 mmHg 92%
    21:00 +6°C° 0,1 mm 7 m/S 760 mmHg 93%
    22:00 +8°C° 0,1 mm 7 m/S 760 mmHg 93%
    23:00 +8°C° 0,1 mm 7 m/S 760 mmHg 93%

    übermorgen, 24 Januar, Mittwoch

    Zeit Temperatur Niederschläge Wind Luftdruck Luftfeuchtigkeit
    00:00 +9°C° 0,1 mm 7 m/S 760 mmHg 93%
    01:00 +9°C° 0,1 mm 7 m/S 760 mmHg 92%
    02:00 +9°C° 0,1 mm 7 m/S 760 mmHg 92%
    03:00 +9°C° 0,1 mm 7 m/S 759 mmHg 92%
    04:00 +9°C° 0,1 mm 7 m/S 759 mmHg 92%
    05:00 +10°C° 0,1 mm 8 m/S 759 mmHg 92%
    06:00 +10°C° 0,1 mm 8 m/S 759 mmHg 92%
    07:00 +10°C° 0 mm 8 m/S 758 mmHg 90%
    08:00 +10°C° 0 mm 9 m/S 758 mmHg 89%
    09:00 +10°C° 0 mm 9 m/S 758 mmHg 88%
    10:00 +11°C° 0 mm 10 m/S 757 mmHg 86%
    11:00 +11°C° 0 mm 10 m/S 757 mmHg 84%
    12:00 +11°C° 0 mm 11 m/S 756 mmHg 82%
    13:00 +12°C° 0,1 mm 11 m/S 756 mmHg 82%
    14:00 +12°C° 0,1 mm 11 m/S 755 mmHg 81%
    15:00 +12°C° 0,1 mm 11 m/S 755 mmHg 81%
    16:00 +11°C° 0,6 mm 10 m/S 755 mmHg 82%
    17:00 +11°C° 0,6 mm 10 m/S 755 mmHg 82%
    18:00 +10°C° 0,6 mm 9 m/S 755 mmHg 83%
    19:00 +9°C° 0,9 mm 8 m/S 755 mmHg 84%
    20:00 +8°C° 0,9 mm 6 m/S 755 mmHg 85%
    21:00 +7°C° 0,9 mm 5 m/S 755 mmHg 86%
    22:00 +7°C° 0,4 mm 5 m/S 755 mmHg 86%
    23:00 +6°C° 0,4 mm 5 m/S 756 mmHg 86%

    25 Januar, Donnerstag

    Zeit Temperatur Niederschläge Wind Luftdruck Luftfeuchtigkeit
    00:00 +6°C° 0,4 mm 5 m/S 756 mmHg 87%
    01:00 +6°C° 0,1 mm 5 m/S 756 mmHg 87%
    02:00 +6°C° 0,1 mm 5 m/S 756 mmHg 88%
    03:00 +6°C° 0,1 mm 5 m/S 756 mmHg 88%
    04:00 +6°C° 0,1 mm 5 m/S 755 mmHg 90%
    05:00 +6°C° 0,1 mm 5 m/S 755 mmHg 91%
    06:00 +6°C° 0,1 mm 4 m/S 755 mmHg 93%
    07:00 +6°C° 0 mm 4 m/S 755 mmHg 92%
    08:00 +6°C° 0 mm 4 m/S 755 mmHg 91%
    09:00 +6°C° 0 mm 4 m/S 755 mmHg 90%
    10:00 +6°C° 0 mm 5 m/S 755 mmHg 88%
    11:00 +7°C° 0 mm 5 m/S 755 mmHg 86%
    12:00 +7°C° 0 mm 5 m/S 754 mmHg 85%
    13:00 +7°C° 0,1 mm 5 m/S 754 mmHg 84%
    14:00 +5°C° 0,1 mm 6 m/S 754 mmHg 84%
    15:00 +5°C° 0,1 mm 6 m/S 753 mmHg 84%
    16:00 +5°C° 0,1 mm 7 m/S 754 mmHg 83%
    17:00 +4°C° 0,1 mm 7 m/S 754 mmHg 83%
    18:00 +4°C° 0,1 mm 7 m/S 755 mmHg 82%
    19:00 +4°C° 0 mm 7 m/S 755 mmHg 83%
    20:00 +3°C° 0 mm 6 m/S 756 mmHg 84%
    21:00 +3°C° 0 mm 5 m/S 756 mmHg 85%
    22:00 +3°C° 0 mm 6 m/S 757 mmHg 85%
    23:00 +3°C° 0 mm 6 m/S 757 mmHg 85%

    26 Januar, Freitag

    Zeit Temperatur Niederschläge Wind Luftdruck Luftfeuchtigkeit
    00:00 +3°C° 0 mm 6 m/S 757 mmHg 86%
    01:00 +2°C° 0 mm 6 m/S 757 mmHg 87%
    02:00 +2°C° 0 mm 6 m/S 757 mmHg 88%
    03:00 +2°C° 0 mm 6 m/S 757 mmHg 89%
    04:00 +2°C° 0 mm 6 m/S 758 mmHg 90%
    05:00 +2°C° 0 mm 6 m/S 758 mmHg 91%
    06:00 +1°C° 0 mm 6 m/S 758 mmHg 92%
    07:00 +2°C° 0 mm 5 m/S 759 mmHg 91%
    08:00 +2°C° 0 mm 5 m/S 759 mmHg 91%
    09:00 +2°C° 0 mm 5 m/S 760 mmHg 91%
    10:00 +3°C° 0 mm 5 m/S 760 mmHg 86%
    11:00 +4°C° 0 mm 6 m/S 760 mmHg 82%
    12:00 +5°C° 0 mm 6 m/S 760 mmHg 78%
    13:00 +4°C° 0,1 mm 6 m/S 761 mmHg 79%
    14:00 +5°C° 0,1 mm 5 m/S 761 mmHg 79%
    15:00 +5°C° 0,1 mm 5 m/S 761 mmHg 80%
    16:00 +5°C° 0,1 mm 5 m/S 761 mmHg 82%
    17:00 +3°C° 0,1 mm 5 m/S 762 mmHg 84%
    18:00 +3°C° 0,1 mm 6 m/S 762 mmHg 86%
    19:00 +3°C° 0 mm 5 m/S 763 mmHg 88%
    20:00 +3°C° 0 mm 5 m/S 764 mmHg 90%
    21:00 +3°C° 0 mm 5 m/S 764 mmHg 92%
    22:00 +2°C° 0 mm 5 m/S 765 mmHg 93%
    23:00 +2°C° 0 mm 5 m/S 765 mmHg 93%

    27 Januar, Samstag

    Zeit Temperatur Niederschläge Wind Luftdruck Luftfeuchtigkeit
    00:00 +2°C° 0 mm 5 m/S 766 mmHg 94%
    01:00 +2°C° 0 mm 5 m/S 767 mmHg 93%
    02:00 +2°C° 0 mm 5 m/S 767 mmHg 93%
    03:00 +1°C° 0 mm 5 m/S 768 mmHg 92%
    04:00 +1°C° 0 mm 4 m/S 769 mmHg 92%
    05:00 +1°C° 0 mm 4 m/S 769 mmHg 92%
    06:00 0°C° 0 mm 4 m/S 770 mmHg 92%
    07:00 +2°C° 0 mm 3 m/S 771 mmHg 90%
    08:00 +2°C° 0 mm 3 m/S 771 mmHg 89%
    09:00 +2°C° 0 mm 3 m/S 772 mmHg 87%
    10:00 +3°C° 0 mm 3 m/S 773 mmHg 82%
    11:00 +4°C° 0 mm 3 m/S 773 mmHg 77%
    12:00 +5°C° 0 mm 3 m/S 774 mmHg 72%
    13:00 +5°C° 0 mm 3 m/S 774 mmHg 74%
    14:00 +6°C° 0 mm 2 m/S 774 mmHg 75%
    15:00 +5°C° 0 mm 2 m/S 775 mmHg 76%
    16:00 +4°C° 0 mm 2 m/S 775 mmHg 79%
    17:00 +2°C° 0 mm 3 m/S 775 mmHg 82%
    18:00 +1°C° 0 mm 3 m/S 776 mmHg 85%
    19:00 +1°C° 0 mm 3 m/S 776 mmHg 85%
    20:00 0°C° 0 mm 4 m/S 776 mmHg 86%
    21:00 0°C° 0 mm 4 m/S 776 mmHg 86%
    22:00 0°C° 0 mm 5 m/S 776 mmHg 86%
    23:00 0°C° 0 mm 5 m/S 776 mmHg 86%
    Mehr zeigen